Location: Iesi
(43.5167°N, 13.2333°E)
Time: 02:28:13
(UTC+00:00)

Cosmos 407 Rocket - Pass Details

Date: 08 August 2020
Orbit: 744 x 786 km, 74.0° (Epoch: 27 September)

Event Time Altitude Azimuth Distance (km) Brightness Sun altitude
Rises 20:16:54 0° 211° (SSW) 3,260 6.6 -18.3°
Reaches altitude 10° 20:19:20 10° 215° (SW) 2,333 5.9 -18.7°
Maximum altitude 20:24:33 57° 294° (WNW) 919 4.2 -19.3°
Drops below altitude 10° 20:29:45 10° 13° (NNE) 2,328 6.4 -19.9°
Sets 20:32:11 0° 17° (NNE) 3,253 7.2 -20.2°
